Simultaneous Nadir Overpasses (SNOs) Predictions

Prediction of SNOs between METOP-B and TERRA Satellite Orbit:

Table of predicted SNOs for the next 14.0 days since TLE Epoch: 2/5/2022
Index Date (METOP-B) Time (METOP-B) Lat,Lon (METOP-B) SZA (METOP-B ) Date (TERRA) Time (TERRA) Lat,Lon (TERRA) SZA (TERRA ) Distance(km) Time Diff (sec)
1 02/07/2022 18:23:16 81.24, -52.72 98.29 02/07/2022 18:24:10 81.24, -52.76 98.30 0.83 54
2 02/07/2022 19:13:56 -81.25, 115.04 81.68 02/07/2022 19:13:36 -81.25, 115.17 81.67 2.25 20
3 02/10/2022 13:57:38 81.24, 13.66 97.38 02/10/2022 13:58:20 81.24, 13.76 97.41 1.65 42
4 02/10/2022 14:48:17 -81.26,-178.15 82.53 02/10/2022 14:47:46 -81.26,-178.29 82.56 2.30 31
5 02/13/2022 09:32:00 81.24, 80.01 96.45 02/13/2022 09:32:30 81.24, 80.16 96.47 2.64 30
6 02/13/2022 10:22:39 -81.26,-111.77 83.47 02/13/2022 10:21:56 -81.26,-111.86 83.50 1.54 43
7 02/16/2022 05:06:20 81.25, 146.70 95.52 02/16/2022 05:06:38 81.25, 146.82 95.55 2.21 18
8 02/16/2022 05:57:00 -81.26, -45.43 84.43 02/16/2022 05:56:05 -81.25, -45.55 84.47 2.19 55
9 02/19/2022 00:40:41 81.25,-146.65 94.57 02/19/2022 00:40:47 81.26,-146.63 94.58 0.75 6



Historial Predications of SNOs between METOP-B and TERRA
